Weather History for CWWL - January, 2013

Change the Weather History Date:

Friday, January 11, 2013

  Actual Average Record
Temperature  
Mean Temperature 36 °F -  
Max Temperature 38 °F - - ()
Min Temperature 34 °F - - ()
Degree Days  
Heating Degree Days 29    
Moisture  
Dew Point 31 °F    
Average Humidity 80    
Maximum Humidity 86    
Minimum Humidity 67    
Precipitation  
Precipitation 0.00 in - - ()
Sea Level Pressure  
Sea Level Pressure 30.26 in    
Wind  
Wind Speed 8 mph ()    
Max Wind Speed 15 mph    
Max Gust Speed 23 mph    
T = Trace of Precipitation, MM = Missing Value Source: Averaged Metar Reports

Daily Weather History Graph

Daily Weather History Graph

Search for Another Location

Airport or City:

Trip Planner

Search our weather history database for the weather conditions in past years. The results will help you decide how hot, cold, wet, or windy it might be!

Date:

Astronomy

Jan. 11, 2013 Rise Set
Actual Time 8:53 AM PST 4:48 PM PST
Civil Twilight 8:12 AM PST 5:29 PM PST
Nautical Twilight 7:27 AM PST 6:13 PM PST
Astronomical Twilight 6:45 AM PST 6:56 PM PST
Moon 8:24 AM PST (1/11) 5:24 PM PST (1/11)
Length of Visible Light 9h 17m
Length of Day
7h 54m
New Moon, 0% of the Moon is Illuminated
Jan 11
New Moon
Jan 18
First Quarter
Jan 26
Full
Feb 3
Last Quarter
Feb 9
New

Hourly Weather History & Observations

Time (PST) Temp. Windchill Dew Point Humidity Pressure Visibility Wind Dir Wind Speed Gust Speed Precip Events Conditions
12:00 AM 37.6 °F 31.0 °F 28.4 °F 69% 30.28 in - NNE 9.2 mph - N/A   Unknown
1:00 AM 38.1 °F 30.7 °F 27.9 °F 67% 30.28 in - North 11.5 mph - N/A   Unknown
2:00 AM 37.9 °F 30.9 °F 31.5 °F 77% 30.28 in - NNE 10.4 mph - N/A   Unknown
3:00 AM 35.4 °F 31.5 °F 29.8 °F 80% 30.29 in - ENE 4.6 mph - N/A   Unknown
4:00 AM 35 °F - 30 °F 77% 30.28 in - NE 4.6 mph - -  
4:00 AM 35.1 °F 31.0 °F 30.4 °F 83% 30.28 in - NE 4.6 mph - N/A   Unknown
5:00 AM 35.6 °F 31.7 °F 30.6 °F 82% 30.28 in - NNE 4.6 mph - N/A   Unknown
6:00 AM 35.8 °F 31.9 °F 31.1 °F 83% 30.27 in - NE 4.6 mph - N/A   Unknown
7:00 AM 35.2 °F 32.4 °F 30.9 °F 84% 30.27 in - ENE 3.5 mph - N/A   Unknown
8:00 AM 35.6 °F - 31.3 °F 84% 30.27 in - East 2.3 mph - N/A   Unknown
9:00 AM 34.7 °F 31.8 °F 30.9 °F 86% 30.27 in - SSE 3.5 mph - N/A   Unknown
10:00 AM 36 °F - 32 °F 79% 30.26 in - SSE 5.8 mph - -  
10:00 AM 35.8 °F 30.9 °F 31.8 °F 86% 30.26 in - SSE 5.8 mph - N/A   Unknown
11:00 AM 37.0 °F 30.4 °F 32.9 °F 85% 30.26 in - SSE 9.2 mph - N/A   Unknown
12:00 PM 36.5 °F 28.7 °F 31.6 °F 83% 30.25 in - SSE 11.5 mph 17.3 mph N/A   Unknown
1:00 PM 35.4 °F 27.3 °F 31.3 °F 85% 30.23 in - SSE 11.5 mph - N/A   Unknown
2:00 PM 36.0 °F 28.0 °F 31.1 °F 82% 30.24 in - SSE 11.5 mph - N/A   Unknown
3:00 PM 36.3 °F 28.0 °F 30.6 °F 80% 30.24 in - SSE 12.7 mph - N/A   Unknown
4:00 PM 36 °F - 30 °F 71% 30.23 in - SSE 15.0 mph - -  
4:00 PM 36.0 °F 26.7 °F 30.0 °F 79% 30.23 in - SSE 15.0 mph 23.0 mph N/A   Unknown
5:00 PM 35.8 °F 26.9 °F 30.2 °F 80% 30.24 in - SSE 13.8 mph 20.7 mph N/A   Unknown
6:00 PM 35.6 °F 28.0 °F 30.4 °F 81% 30.25 in - SSE 10.4 mph - N/A   Unknown
7:00 PM 35.2 °F 27.6 °F 30.2 °F 82% 30.24 in - SSE 10.4 mph 17.3 mph N/A   Unknown
8:00 PM 35.2 °F 28.1 °F 30.0 °F 81% 30.24 in - SSE 9.2 mph - N/A   Unknown
10:00 PM 36 °F - 31 °F 74% 30.26 in - SSE 10.4 mph - -  
10:00 PM 36.5 °F 29.2 °F 30.7 °F 80% 30.26 in - SSE 10.4 mph - N/A   Unknown
11:00 PM 36.1 °F 27.7 °F 31.8 °F 84% 30.26 in - SSE 12.7 mph - N/A   Unknown